Flag for Turkey Weather past 2 weeks in Bodrum, Turkey

Now
82 °F

Sunny.


Feels Like: 85 °F
Forecast: 72 / 81 °F
Wind: 3 mph from South

Location: Bodrum

Current Time: Sep 1, 2014 at 11:24:34 AM

Latest Report: Sep 1, 2014 at 10:00 AM


Visibility: 13 mi

Pressure: 29.75 "Hg

Humidity: 66%

Dew point: 69 °F

Location of BodrumLocation

Historic Weather in Bodrum — Graph

°F

Bodrum temperature yesterday

Maximum temperature yesterday: 90 °F (at 2:00 PM)
Minimum temperature yesterday: 76 °F (at 6:00 AM)
Average temperature yesterday: 84 °F

Past Weeks' High & Low Weather Summary

 TemperatureHumidityPressure
High104 °F (Aug 22, 2:00 PM)80% (Aug 31, 6:00 AM)29.95 "Hg (Aug 31, 6:00 AM)
Low74 °F (Sep 1, 6:00 AM)18% (Aug 21, 5:00 PM)29.63 "Hg (Aug 17, 5:00 PM)
Average91 °F42%29.79 "Hg
* Reported Aug 17 10:00 AM — Sep 1 10:00 AM, Bodrum, Weather by CustomWeather, © 2014

Note: Actual official high and low records may vary slightly from our data, if they occured in-between our weather recording intervals... More about our weather records

Advertising

Bodrum weather history for previous 24 hours

 ConditionsComfort  
Time TempWeatherWind HumidityBarometerVisibility
10:00 AM
Sep 1
82 °FSunny.3 mph66%29.75 "Hg12 mi
9:00 AM79 °FSunny.2 mph70%29.75 "Hg12 mi
6:00 AM74 °FClear.2 mph78%29.74 "Hg12 mi
3:00 AM75 °FClear.1 mph80%29.75 "Hg12 mi
12:00 AM77 °FClear.1 mph71%29.78 "Hg12 mi
9:00 PM
Aug 31
79 °FClear.2 mph68%29.78 "Hg12 mi
8:00 PM80 °FClear.3 mph66%29.77 "Hg12 mi
7:00 PM83 °FSunny.8 mph58%29.76 "Hg12 mi
6:00 PM87 °FSunny.6 mph53%29.77 "Hg12 mi
5:00 PM87 °FSunny.8 mph50%29.77 "Hg12 mi
4:00 PM89 °FSunny.7 mph47%29.78 "Hg12 mi
3:00 PM90 °FSunny.7 mph45%29.78 "Hg12 mi
2:00 PM90 °FSunny.7 mph43%29.79 "Hg12 mi
1:00 PM90 °FSunny.6 mph46%29.79 "Hg12 mi
12:00 PM89 °FSunny.7 mph46%29.80 "Hg12 mi
11:00 AM84 °FSunny.6 mph62%29.80 "Hg12 mi
Weather by CustomWeather, © 2014

See weather overviewHow to use our weather pages